Carlsbad, CA

2:25 AM PDT on May 25, 2017 (GMT -0700)
McClellan-Palomar

Weather History for KCRQ - January, 2014

Change the Weather History Date:

Tuesday, January 21, 2014

  Actual Average Record
Temperature  
Mean Temperature 63 °F -  
Max Temperature 78 °F 61 °F 78 °F (2014)
Min Temperature 48 °F 46 °F 44 °F (2002)
Degree Days  
Heating Degree Days 2    
Growing Degree Days 13 (Base 50)    
Moisture  
Dew Point 36 °F    
Average Humidity 43    
Maximum Humidity 66    
Minimum Humidity 14    
Precipitation  
Precipitation 0.00 in - - ()
Sea Level Pressure  
Sea Level Pressure 30.09 in    
Wind  
Wind Speed 1 mph (SW)    
Max Wind Speed 5 mph    
Max Gust Speed -    
Visibility 10 miles    
Events      
Averages and records for this station are not official NWS values.
T = Trace of Precipitation, MM = Missing Value Source: NWS Daily Summary

Daily Weather History Graph

Daily Weather History Graph

Search for Another Location

Airport or City:

Trip Planner

Search our weather history database for the weather conditions in past years. The results will help you decide how hot, cold, wet, or windy it might be!

Date:

Astronomy

Jan. 21, 2014 Rise Set
Actual Time 6:50 AM PST 5:10 PM PST
Civil Twilight 6:24 AM PST 5:37 PM PST
Nautical Twilight 5:53 AM PST 6:07 PM PST
Astronomical Twilight 5:24 AM PST 6:36 PM PST
Moon 10:28 PM PST (1/21) 9:40 AM PST (1/21)
Length of Visible Light 11h 13m
Length of Day
10h 20m
Waning Gibbous, 73% of the Moon is Illuminated
Jan 21
Waning Gibbous
Jan 23
Last Quarter
Jan 30
New
Feb 6
First Quarter
Feb 14
Full

Hourly Weather History & Observations

Time (PST) Temp. Dew Point Humidity Pressure Visibility Wind Dir Wind Speed Gust Speed Precip Events Conditions
12:06 AM 53.6 °F 32.0 °F 44% 30.15 in 10.0 mi Calm Calm - N/A   Scattered Clouds
12:14 AM 53.6 °F 32.0 °F 44% 30.15 in 10.0 mi Calm Calm - N/A   Mostly Cloudy
12:44 AM 51.8 °F 35.6 °F 54% 30.14 in 10.0 mi Calm Calm - N/A   Scattered Clouds
12:53 AM 52.0 °F 41.0 °F 66% 30.13 in 9.0 mi Calm Calm - N/A   Partly Cloudy
1:53 AM 48.9 °F 37.0 °F 64% 30.14 in 9.0 mi Calm Calm - N/A   Clear
2:53 AM 52.0 °F 28.9 °F 41% 30.13 in 10.0 mi NE 3.5 mph - N/A   Clear
3:53 AM 53.1 °F 27.0 °F 37% 30.11 in 10.0 mi Calm Calm - N/A   Clear
4:53 AM 51.1 °F 27.0 °F 39% 30.12 in 10.0 mi Calm Calm - N/A   Clear
5:53 AM 53.1 °F 24.1 °F 32% 30.12 in 10.0 mi Calm Calm - N/A   Clear
6:53 AM 54.0 °F 24.1 °F 31% 30.12 in 10.0 mi Calm Calm - N/A   Clear
7:53 AM 57.9 °F 25.0 °F 28% 30.12 in 10.0 mi Calm Calm - N/A   Clear
8:53 AM 61.0 °F 27.0 °F 27% 30.14 in 10.0 mi Calm Calm - N/A   Clear
9:53 AM 70.0 °F 25.0 °F 18% 30.14 in 10.0 mi Calm Calm - N/A   Clear
10:53 AM 70.0 °F 33.1 °F 26% 30.13 in 10.0 mi Calm Calm - N/A   Clear
11:53 AM 71.1 °F 41.0 °F 34% 30.08 in 10.0 mi Calm Calm - N/A   Clear
12:53 PM 78.1 °F 24.1 °F 14% 30.05 in 10.0 mi WSW 3.5 mph - N/A   Clear
1:53 PM 66.9 °F 46.0 °F 47% 30.04 in 10.0 mi Variable 3.5 mph - N/A   Clear
2:53 PM 69.1 °F 39.0 °F 33% 30.04 in 10.0 mi WSW 3.5 mph - N/A   Clear
3:53 PM 71.1 °F 32.0 °F 24% 30.04 in 10.0 mi Calm Calm - N/A   Clear
4:53 PM 70.0 °F 32.0 °F 25% 30.04 in 10.0 mi Calm Calm - N/A   Clear
5:53 PM 63.0 °F 48.9 °F 60% 30.06 in 10.0 mi WNW 4.6 mph - N/A   Clear
6:53 PM 62.1 °F 50.0 °F 65% 30.07 in 9.0 mi Calm Calm - N/A   Clear
7:53 PM 60.1 °F 48.0 °F 64% 30.06 in 9.0 mi Calm Calm - N/A   Clear
8:53 PM 61.0 °F 48.9 °F 64% 30.06 in 9.0 mi South 3.5 mph - N/A   Clear
9:53 PM 60.1 °F 46.9 °F 62% 30.06 in 10.0 mi SSE 3.5 mph - N/A   Clear
10:53 PM 59.0 °F 45.0 °F 60% 30.06 in 10.0 mi South 3.5 mph - N/A   Clear
11:53 PM 59.0 °F 44.1 °F 58% 30.06 in 10.0 mi Calm Calm - N/A   Clear